GW0655 Weather Reports


time (UTC)temp
C
wind
direction
speed
KPH
gust
KPH
rain 1hr
cm
rain 24hr
cm
rain mn
cm
humidity
%
barometer
mb
20260503200153 26 127 4.8 8.0 0.00 0.00 0.00 36 1021.7
20260503195650 27 211 6.4 11.3 0.00 0.00 0.00 35 1021.7
20260503195147 26 171 1.6 3.2 0.00 0.00 0.00 37 1022.0
20260503194644 26 210 4.8 11.3 0.00 0.00 0.00 35 1022.0
20260503194139 26 121 6.4 9.7 0.00 0.00 0.00 37 1021.7
20260503193637 26 209 8.0 11.3 0.00 0.00 0.00 36 1022.0
20260503193132 26 195 3.2 4.8 0.00 0.00 0.00 36 1022.4
20260503192628 26 221 6.4 9.7 0.00 0.00 0.00 36 1022.0
20260503192124 26 195 4.8 8.0 0.00 0.00 0.00 38 1022.0
20260503191621 26 254 9.7 12.9 0.00 0.00 0.00 37 1022.0
20260503191118 26 116 8.0 11.3 0.00 0.00 0.00 35 1022.4
20260503190615 27 229 4.8 8.0 0.00 0.00 0.00 35 1022.4
20260503190112 26 289 1.6 3.2 0.00 0.00 0.00 39 1022.7
20260503185608 27 203 1.6 3.2 0.00 0.00 0.00 38 1022.4
20260503185108 26 193 6.4 8.0 0.00 0.00 0.00 37 1022.7
20260503184604 26 115 4.8 8.0 0.00 0.00 0.00 37 1022.7
20260503184101 25 146 6.4 9.7 0.00 0.00 0.00 37 1022.7
20260503183557 26 112 9.7 11.3 0.00 0.00 0.00 38 1023.1
20260503183055 26 240 4.8 11.3 0.00 0.00 0.00 37 1023.1
20260503182553 26 171 0.0 1.6 0.00 0.00 0.00 39 1023.1
20260503182050 26 228 3.2 4.8 0.00 0.00 0.00 37 1023.4
20260503181547 26 238 9.7 12.9 0.00 0.00 0.00 35 1023.4
20260503181044 25 151 6.4 8.0 0.00 0.00 0.00 37 1023.4
20260503180541 26 42 9.7 11.3 0.00 0.00 0.00 35 1023.4
20260503180038 26 207 6.4 9.7 0.00 0.00 0.00 37 1023.4
20260503175535 26 171 3.2 4.8 0.00 0.00 0.00 37 1023.4
20260503175033 26 212 4.8 4.8 0.00 0.00 0.00 38 1024.1
20260503174530 26 286 1.6 3.2 0.00 0.00 0.00 39 1023.7
20260503174026 26 212 6.4 9.7 0.00 0.00 0.00 37 1024.1
20260503173521 26 160 11.3 14.5 0.00 0.00 0.00 37 1024.1
20260503173017 26 194 8.0 12.9 0.00 0.00 0.00 36 1024.1
20260503172516 26 144 6.4 14.5 0.00 0.00 0.00 40 1024.1
20260503172012 25 235 3.2 4.8 0.00 0.00 0.00 40 1024.1
20260503171509 25 183 11.3 12.9 0.00 0.00 0.00 37 1024.4
20260503171006 25 165 4.8 8.0 0.00 0.00 0.00 39 1024.4
20260503170502 26 158 4.8 8.0 0.00 0.00 0.00 38 1024.4
20260503150855 22 192 1.6 1.6 0.00 0.00 0.00 57 1024.7
20260503150351 22 229 1.6 1.6 0.00 0.00 0.00 57 1024.7
20260503140315 20 290 1.6 1.6 0.00 0.00 0.00 65 1024.4
20260503131244 13 301 1.6 1.6 0.00 0.00 0.00 96 1024.1
20260503130742 13 303 1.6 1.6 0.00 0.00 0.00 96 1024.4
20260503130239 12 276 0.0 0.0 0.00 0.00 0.00 97 1024.4
20260503120205 10 256 0.0 0.0 0.00 0.00 0.00 97 1024.1
20260503110633 10 259 0.0 0.0 0.00 0.00 0.00 96 1023.4
20260503110130 10 250 0.0 0.0 0.00 0.00 0.00 96 1023.4
20260503081446 11 263 0.0 0.0 0.00 0.00 0.00 94 1023.1
20260503080943 11 262 0.0 0.0 0.00 0.00 0.00 93 1022.7
20260503080439 11 261 0.0 0.0 0.00 0.00 0.00 93 1023.1
20260503072916 12 261 0.0 0.0 0.00 0.00 0.00 92 1023.1
20260503072413 12 257 0.0 0.0 0.00 0.00 0.00 92 1023.4
20260503071910 12 248 0.0 0.0 0.00 0.00 0.00 92 1023.1
20260503071407 12 254 0.0 0.0 0.00 0.00 0.00 92 1023.4
20260503070903 12 256 0.0 0.0 0.00 0.00 0.00 91 1023.1
20260503070400 12 256 0.0 0.0 0.00 0.00 0.00 90 1023.4
20260503060326 13 269 0.0 0.0 0.00 0.00 0.00 88 1023.4
20260503054814 13 270 0.0 0.0 0.00 0.00 0.00 87 1023.4
20260503054310 13 270 0.0 0.0 0.00 0.00 0.00 87 1023.4
20260503053808 13 270 0.0 0.0 0.00 0.00 0.00 87 1023.4
20260503053306 13 270 0.0 0.0 0.00 0.00 0.00 87 1023.4
20260503052802 13 270 0.0 0.0 0.00 0.00 0.00 87 1023.4
20260503052259 13 270 0.0 0.0 0.00 0.00 0.00 87 1023.4
20260503051755 13 271 0.0 0.0 0.00 0.00 0.00 87 1023.4
20260503051252 13 266 0.0 0.0 0.00 0.00 0.00 87 1023.4
20260503050748 13 266 0.0 0.0 0.00 0.00 0.00 87 1023.1
20260503050245 13 264 0.0 0.0 0.00 0.00 0.00 86 1023.4
20260503045742 13 264 0.0 0.0 0.00 0.00 0.00 86 1023.4
20260503045240 13 265 0.0 0.0 0.00 0.00 0.00 85 1023.4
20260503044736 13 265 0.0 0.0 0.00 0.00 0.00 84 1023.4
20260503044233 13 260 0.0 0.0 0.00 0.00 0.00 83 1023.4
20260503043730 14 258 0.0 0.0 0.00 0.00 0.00 82 1023.4
20260503043227 14 243 0.0 0.0 0.00 0.00 0.00 81 1023.4
20260503042723 14 265 0.0 0.0 0.00 0.00 0.00 81 1023.4
20260503042220 15 266 0.0 0.0 0.00 0.00 0.00 82 1023.1
20260503041716 15 266 0.0 0.0 0.00 0.00 0.00 82 1023.1
20260503041214 15 265 0.0 0.0 0.00 0.00 0.00 82 1023.1
20260503040711 15 261 0.0 0.0 0.00 0.00 0.00 82 1023.1
20260503040209 15 261 0.0 0.0 0.00 0.00 0.00 81 1023.4
20260503035705 15 261 0.0 0.0 0.00 0.00 0.00 80 1023.1
20260503035203 15 268 0.0 0.0 0.00 0.00 0.00 81 1023.4
20260503034700 15 268 0.0 0.0 0.00 0.00 0.00 80 1023.4
20260503034157 15 268 0.0 0.0 0.00 0.00 0.00 80 1023.1
20260503033654 15 268 0.0 0.0 0.00 0.00 0.00 80 1023.1
20260503033152 15 268 0.0 0.0 0.00 0.00 0.00 79 1023.1
20260503032650 15 268 0.0 0.0 0.00 0.00 0.00 79 1023.1
20260503032149 15 268 0.0 0.0 0.00 0.00 0.00 78 1023.1
20260503031645 16 268 0.0 0.0 0.00 0.00 0.00 76 1022.7
20260503031143 16 268 0.0 0.0 0.00 0.00 0.00 76 1022.7
20260503030638 16 268 0.0 0.0 0.00 0.00 0.00 76 1022.7
20260503030136 16 268 0.0 0.0 0.00 0.00 0.00 75 1023.1
20260503025632 16 268 0.0 0.0 0.00 0.00 0.00 73 1022.7
20260503025130 16 268 0.0 0.0 0.00 0.00 0.00 73 1022.4
20260503024626 16 268 0.0 0.0 0.00 0.00 0.00 74 1022.7
20260503024123 16 268 0.0 0.0 0.00 0.00 0.00 74 1022.4
20260503023621 16 268 0.0 0.0 0.00 0.00 0.00 73 1022.4
20260503023118 16 268 0.0 0.0 0.00 0.00 0.00 71 1022.4
20260503022614 16 268 0.0 0.0 0.00 0.00 0.00 70 1022.0
20260503022108 16 268 0.0 0.0 0.00 0.00 0.00 69 1022.0
20260503021606 16 268 0.0 0.0 0.00 0.00 0.00 70 1022.4
20260503021102 17 268 0.0 0.0 0.00 0.00 0.00 69 1022.0
20260503020559 17 269 0.0 0.0 0.00 0.00 0.00 68 1022.0
20260503020056 17 268 0.0 0.0 0.00 0.00 0.00 67 1022.0
20260503015553 17 256 0.0 0.0 0.00 0.00 0.00 65 1021.7
20260503015050 18 255 0.0 0.0 0.00 0.00 0.00 65 1022.0
20260503014546 18 240 0.0 0.0 0.00 0.00 0.00 63 1022.0
20260503014044 19 250 0.0 0.0 0.00 0.00 0.00 60 1022.0
20260503013541 20 245 0.0 0.0 0.00 0.00 0.00 58 1022.0
20260503013039 20 246 0.0 0.0 0.00 0.00 0.00 55 1021.7
20260503012536 20 243 0.0 0.0 0.00 0.00 0.00 55 1021.7
20260503012032 20 246 0.0 0.0 0.00 0.00 0.00 54 1021.7
20260503011529 20 253 0.0 0.0 0.00 0.00 0.00 53 1021.7
20260503011026 20 231 0.0 0.0 0.00 0.00 0.00 52 1021.7
20260503010522 21 184 0.0 1.6 0.00 0.00 0.00 51 1021.7
20260503010020 21 236 0.0 0.0 0.00 0.00 0.00 51 1021.7
20260503005517 21 206 0.0 1.6 0.00 0.00 0.00 49 1021.7
20260503005015 21 119 0.0 0.0 0.00 0.00 0.00 48 1021.7
20260503004510 21 147 0.0 0.0 0.00 0.00 0.00 47 1021.7
20260503004009 21 300 0.0 0.0 0.00 0.00 0.00 46 1021.7
20260503003505 21 6 1.6 1.6 0.00 0.00 0.00 43 1021.7
20260503003002 22 2 3.2 3.2 0.00 0.00 0.00 45 1021.4
20260503002459 22 339 1.6 3.2 0.00 0.00 0.00 44 1021.7
20260503001955 22 28 1.6 1.6 0.00 0.00 0.00 43 1021.4
20260503001452 22 52 0.0 1.6 0.00 0.00 0.00 43 1021.4
20260503000950 22 350 3.2 3.2 0.00 0.00 0.00 42 1021.4
20260503000447 22 358 3.2 3.2 0.00 0.00 0.00 44 1021.7
20260502235944 22 344 3.2 3.2 0.00 0.00 0.00 43 1021.4
20260502235440 22 352 6.4 8.0 0.00 0.00 0.00 43 1021.7
20260502234938 22 57 0.0 1.6 0.00 0.00 0.00 42 1021.7
20260502234434 22 56 1.6 1.6 0.00 0.00 0.00 42 1021.4
20260502233932 22 338 4.8 4.8 0.00 0.00 0.00 41 1021.4
20260502233427 22 50 1.6 1.6 0.00 0.00 0.00 42 1021.4
20260502232924 23 340 4.8 4.8 0.00 0.00 0.00 39 1021.4
20260502232421 23 271 0.0 0.0 0.00 0.00 0.00 43 1021.0
20260502231918 23 273 0.0 0.0 0.00 0.00 0.00 41 1021.4
20260502231415 23 316 1.6 1.6 0.00 0.00 0.00 42 1021.4
20260502230913 23 300 1.6 1.6 0.00 0.00 0.00 41 1021.4
20260502230411 23 359 4.8 4.8 0.00 0.00 0.00 39 1021.4
20260502225909 23 345 4.8 4.8 0.00 0.00 0.00 42 1021.0
20260502225404 23 345 1.6 1.6 0.00 0.00 0.00 40 1021.4
20260502224901 23 109 4.8 8.0 0.00 0.00 0.00 40 1021.4
20260502224357 23 353 6.4 8.0 0.00 0.00 0.00 41 1021.4
20260502223855 23 51 1.6 3.2 0.00 0.00 0.00 42 1021.0
20260502223353 23 19 0.0 1.6 0.00 0.00 0.00 43 1021.0
20260502222850 23 0 8.0 9.7 0.00 0.00 0.00 42 1021.4
20260502222348 23 46 0.0 0.0 0.00 0.00 0.00 42 1021.4
20260502221843 23 342 1.6 3.2 0.00 0.00 0.00 43 1021.4
20260502221340 23 355 6.4 8.0 0.00 0.00 0.00 42 1021.4
20260502220837 23 339 1.6 1.6 0.00 0.00 0.00 43 1021.7
20260502220332 23 54 0.0 1.6 0.00 0.00 0.00 43 1021.7
20260502215829 23 358 11.3 11.3 0.00 0.00 0.00 41 1021.7
20260502215327 23 50 0.0 1.6 0.00 0.00 0.00 40 1021.7
20260502214824 23 355 4.8 8.0 0.00 0.00 0.00 43 1021.7
20260502214320 23 266 1.6 3.2 0.00 0.00 0.00 42 1021.7
20260502213818 23 354 11.3 12.9 0.00 0.00 0.00 41 1021.7
20260502213315 23 3 8.0 9.7 0.00 0.00 0.00 41 1021.7
20260502212814 24 90 3.2 8.0 0.00 0.00 0.00 42 1021.7
20260502212312 23 240 0.0 1.6 0.00 0.00 0.00 42 1022.0
20260502211809 23 167 1.6 1.6 0.00 0.00 0.00 40 1022.0
20260502211304 23 301 3.2 4.8 0.00 0.00 0.00 40 1022.0
20260502210802 24 57 4.8 4.8 0.00 0.00 0.00 40 1021.7
20260502210259 23 10 3.2 3.2 0.00 0.00 0.00 41 1022.4
20260502205756 23 24 3.2 4.8 0.00 0.00 0.00 42 1022.4
20260502205251 23 16 8.0 9.7 0.00 0.00 0.00 41 1022.0
20260502204749 23 342 6.4 9.7 0.00 0.00 0.00 40 1022.4
20260502204246 23 43 0.0 1.6 0.00 0.00 0.00 41 1022.4
20260502203744 23 30 4.8 4.8 0.00 0.00 0.00 42 1022.4
20260502203242 23 52 1.6 3.2 0.00 0.00 0.00 40 1022.7
20260502202736 23 342 6.4 8.0 0.00 0.00 0.00 40 1022.4
20260502202234 23 6 4.8 9.7 0.00 0.00 0.00 43 1022.4
20260502201731 23 340 4.8 8.0 0.00 0.00 0.00 38 1022.4
20260502201228 24 94 1.6 1.6 0.00 0.00 0.00 41 1022.4
20260502200724 23 185 0.0 1.6 0.00 0.00 0.00 41 1022.7